Location: Buckenweiler
(49.0667°N, 10.2500°E)
Time: 20:38:39
(UTC+00:00)

Cosmos 1727 Rocket - Pass Details

Date: 18 January 2026
Orbit: 959 x 997 km, 82.9° (Epoch: 15 February)

Event Time Altitude Azimuth Distance (km) Brightness Sun altitude
Rises 06:19:47 0° 350° (N) 3,673 6.7 -7.5°
Reaches altitude 10° 06:22:18 10° 351° (N) 2,718 6.0 -7.1°
Maximum altitude 06:28:32 90° 267° (W) 969 4.1 -6.2°
Drops below altitude 10° 06:34:42 10° 173° (S) 2,686 6.8 -5.3°
Sets 06:37:10 0° 173° (S) 3,628 7.5 -4.9°
